�������l�o���
Date,Time,MP-1(��Sv/h),MP-2(��Sv/h),MP-3(��Sv/h),MP-4(��Sv/h),MP-5(��Sv/h),MP-6(��Sv/h),MP-7(��Sv/h),MP-8(��Sv/h),����,����(m/s),���J
2023/07/03,00:00,0.524,0.802,0.487,0.954,0.700,0.323,0.564,0.530,��,4.6,��
2023/07/03,00:10,0.524,0.800,0.489,0.952,0.699,0.323,0.564,0.531,��쓌,4.7,��
2023/07/03,00:20,0.522,0.799,0.488,0.954,0.698,0.323,0.564,0.531,��,4.2,��
2023/07/03,00:30,0.523,0.801,0.488,0.954,0.700,0.323,0.564,0.531,��,5.5,��
2023/07/03,00:40,0.523,0.800,0.488,0.951,0.700,0.324,0.565,0.531,��,5.4,��
2023/07/03,00:50,0.523,0.801,0.489,0.953,0.699,0.324,0.563,0.531,��,5.3,��
2023/07/03,01:00,0.523,0.801,0.489,0.954,0.699,0.322,0.565,0.531,��,4.1,��
2023/07/03,01:10,0.524,0.800,0.488,0.953,0.699,0.323,0.566,0.528,�쐼,1.5,��
2023/07/03,01:20,0.525,0.802,0.488,0.956,0.697,0.323,0.565,0.532,��쐼,1.7,��
2023/07/03,01:30,0.522,0.802,0.490,0.954,0.698,0.324,0.565,0.531,��쐼,1.9,��
2023/07/03,01:40,0.525,0.802,0.488,0.953,0.698,0.323,0.565,0.531,��쐼,1.9,��
2023/07/03,01:50,0.525,0.800,0.489,0.955,0.698,0.322,0.565,0.529,��,1.7,��
2023/07/03,02:00,0.525,0.801,0.490,0.955,0.699,0.324,0.565,0.530,��,2.0,��
2023/07/03,02:10,0.525,0.803,0.489,0.954,0.699,0.325,0.565,0.531,��,1.7,��
2023/07/03,02:20,0.525,0.800,0.490,0.955,0.700,0.323,0.566,0.532,��쐼,2.5,��
2023/07/03,02:30,0.525,0.801,0.488,0.954,0.699,0.324,0.566,0.532,��,3.6,��
2023/07/03,02:40,0.524,0.802,0.489,0.952,0.699,0.324,0.565,0.532,��,3.7,��
2023/07/03,02:50,0.525,0.802,0.489,0.954,0.699,0.323,0.564,0.531,��,3.8,��
2023/07/03,03:00,0.523,0.801,0.489,0.954,0.699,0.323,0.566,0.532,��,5.1,��
2023/07/03,03:10,0.525,0.798,0.489,0.955,0.699,0.324,0.567,0.531,��,4.3,��
2023/07/03,03:20,0.524,0.802,0.486,0.955,0.700,0.324,0.566,0.532,��,4.3,��
2023/07/03,03:30,0.524,0.801,0.489,0.954,0.699,0.323,0.566,0.530,��쐼,5.0,��
2023/07/03,03:40,0.525,0.801,0.489,0.953,0.698,0.323,0.565,0.530,��,4.8,��
2023/07/03,03:50,0.524,0.801,0.491,0.953,0.697,0.324,0.566,0.531,��,4.3,��
2023/07/03,04:00,0.523,0.802,0.488,0.953,0.699,0.324,0.566,0.531,��,5.1,��
2023/07/03,04:10,0.526,0.802,0.488,0.953,0.700,0.323,0.567,0.531,��,5.1,��
2023/07/03,04:20,0.524,0.801,0.489,0.949,0.700,0.323,0.566,0.530,��,5.0,��
2023/07/03,04:30,0.524,0.800,0.488,0.951,0.699,0.322,0.568,0.532,��,5.8,��
2023/07/03,04:40,0.524,0.800,0.489,0.952,0.696,0.324,0.566,0.531,��쐼,4.6,��
2023/07/03,04:50,0.523,0.802,0.488,0.952,0.699,0.324,0.566,0.532,��,4.6,��
2023/07/03,05:00,0.525,0.801,0.488,0.952,0.699,0.325,0.568,0.532,��쐼,3.3,��
2023/07/03,05:10,0.524,0.802,0.488,0.953,0.698,0.324,0.567,0.531,��쐼,3.7,��
2023/07/03,05:20,0.524,0.801,0.490,0.954,0.700,0.324,0.566,0.532,��쐼,2.9,��
2023/07/03,05:30,0.526,0.801,0.489,0.955,0.699,0.324,0.566,0.532,��쐼,3.2,��
2023/07/03,05:40,0.524,0.800,0.490,0.953,0.700,0.324,0.567,0.531,��쐼,2.9,��
2023/07/03,05:50,0.523,0.801,0.488,0.953,0.699,0.324,0.567,0.530,��쐼,2.9,��
2023/07/03,06:00,0.523,0.802,0.490,0.954,0.700,0.323,0.568,0.532,��쐼,4.2,��
2023/07/03,06:10,0.525,0.801,0.488,0.953,0.699,0.324,0.567,0.533,��,2.9,��
2023/07/03,06:20,0.524,0.801,0.487,0.953,0.699,0.323,0.568,0.532,��쓌,3.3,��
2023/07/03,06:30,0.524,0.799,0.487,0.954,0.699,0.323,0.567,0.532,��,2.3,��
2023/07/03,06:40,0.521,0.801,0.487,0.955,0.698,0.323,0.568,0.532,��쓌,1.7,��
2023/07/03,06:50,0.523,0.798,0.489,0.953,0.699,0.323,0.568,0.531,��쓌,4.5,��
2023/07/03,07:00,0.522,0.799,0.487,0.952,0.699,0.323,0.568,0.531,��,3.0,��
2023/07/03,07:10,0.522,0.800,0.489,0.953,0.699,0.323,0.566,0.531,��쐼,2.2,��
2023/07/03,07:20,0.524,0.799,0.489,0.953,0.699,0.323,0.566,0.531,��쓌,4.2,��
2023/07/03,07:30,0.523,0.800,0.489,0.954,0.697,0.323,0.566,0.531,��쓌,4.3,��
2023/07/03,07:40,0.522,0.801,0.488,0.953,0.698,0.323,0.567,0.531,�쓌,2.8,��
2023/07/03,07:50,0.523,0.800,0.488,0.952,0.697,0.323,0.565,0.531,�쓌,2.0,��
2023/07/03,08:00,0.525,0.800,0.488,0.954,0.698,0.324,0.566,0.530,�쓌,1.9,��
2023/07/03,08:10,0.522,0.799,0.487,0.954,0.697,0.322,0.566,0.530,�쓌,2.6,��
2023/07/03,08:20,0.524,0.798,0.489,0.955,0.699,0.323,0.566,0.529,��쓌,0.9,��
2023/07/03,08:30,0.522,0.801,0.488,0.954,0.699,0.323,0.565,0.528,��쓌,2.8,��
2023/07/03,08:40,0.522,0.800,0.487,0.953,0.699,0.323,0.566,0.529,��쓌,3.6,��
2023/07/03,08:50,0.522,0.798,0.488,0.952,0.700,0.321,0.568,0.529,��,2.3,��
2023/07/03,09:00,0.525,0.799,0.488,0.956,0.699,0.323,0.566,0.528,��쓌,3.5,��
2023/07/03,09:10,0.523,0.800,0.490,0.953,0.698,0.323,0.568,0.530,��쓌,2.3,��
2023/07/03,09:20,0.525,0.798,0.489,0.955,0.698,0.322,0.568,0.531,��쓌,2.3,��
2023/07/03,09:30,0.524,0.800,0.488,0.956,0.700,0.323,0.565,0.531,��쓌,3.4,��
2023/07/03,09:40,0.525,0.799,0.488,0.955,0.700,0.324,0.566,0.530,��쐼,2.0,��
2023/07/03,09:50,0.527,0.799,0.487,0.956,0.700,0.324,0.566,0.529,��,2.8,��
2023/07/03,10:00,0.525,0.802,0.488,0.954,0.699,0.324,0.568,0.531,���쐼,4.6,��
2023/07/03,10:10,0.527,0.800,0.489,0.957,0.697,0.325,0.567,0.531,�쐼,6.1,��
2023/07/03,10:20,0.527,0.802,0.489,0.956,0.700,0.325,0.567,0.532,�쐼,5.6,��
2023/07/03,10:30,0.526,0.800,0.488,0.955,0.701,0.324,0.570,0.531,���쐼,5.0,��
2023/07/03,10:40,0.528,0.801,0.489,0.956,0.703,0.325,0.567,0.531,��,5.3,��
2023/07/03,10:50,0.531,0.803,0.490,0.956,0.700,0.324,0.568,0.531,���쐼,6.8,��
2023/07/03,11:00,0.531,0.806,0.491,0.955,0.701,0.325,0.568,0.532,��,6.3,��
2023/07/03,11:10,0.532,0.804,0.488,0.956,0.702,0.324,0.568,0.532,��,6.8,��
2023/07/03,11:20,0.532,0.807,0.490,0.956,0.704,0.326,0.569,0.532,���k��,5.0,��
2023/07/03,11:30,0.530,0.807,0.490,0.956,0.703,0.326,0.568,0.532,��,3.8,��
2023/07/03,11:40,0.531,0.808,0.490,0.957,0.703,0.324,0.569,0.533,�k��,4.0,��
2023/07/03,11:50,0.530,0.805,0.491,0.956,0.703,0.325,0.568,0.533,��,1.7,��
2023/07/03,12:00,0.530,0.809,0.489,0.956,0.706,0.326,0.568,0.532,�k�k��,1.2,��
2023/07/03,12:10,0.531,0.807,0.490,0.957,0.704,0.325,0.566,0.533,��쓌,3.4,��
2023/07/03,12:20,0.531,0.808,0.492,0.957,0.703,0.326,0.567,0.533,��,4.3,��
2023/07/03,12:30,0.532,0.810,0.492,0.957,0.704,0.326,0.565,0.531,��쓌,7.3,��
2023/07/03,12:40,0.530,0.809,0.492,0.957,0.705,0.324,0.564,0.534,��쓌,4.0,��
2023/07/03,12:50,0.531,0.808,0.492,0.957,0.707,0.324,0.566,0.534,��쓌,3.3,��
2023/07/03,13:00,0.531,0.809,0.491,0.959,0.705,0.325,0.566,0.531,��쓌,4.8,��
2023/07/03,13:10,0.530,0.809,0.493,0.956,0.705,0.325,0.566,0.533,��쓌,4.3,��
2023/07/03,13:20,0.532,0.807,0.492,0.958,0.706,0.323,0.565,0.534,��쓌,7.0,��
2023/07/03,13:30,0.530,0.807,0.492,0.959,0.704,0.324,0.566,0.532,��쓌,7.5,��
2023/07/03,13:40,0.533,0.807,0.491,0.958,0.706,0.323,0.565,0.534,�쓌,8.5,��
2023/07/03,13:50,0.531,0.805,0.491,0.958,0.707,0.323,0.564,0.531,��쓌,9.9,��
2023/07/03,14:00,0.531,0.807,0.490,0.959,0.705,0.324,0.566,0.533,��쓌,10.2,��
2023/07/03,14:10,0.532,0.806,0.491,0.960,0.707,0.321,0.565,0.532,��쓌,9.8,��
2023/07/03,14:20,0.531,0.807,0.490,0.959,0.708,0.324,0.567,0.533,��쓌,8.6,��
2023/07/03,14:30,0.532,0.807,0.491,0.958,0.709,0.324,0.565,0.532,��쓌,6.8,��
2023/07/03,14:40,0.530,0.805,0.491,0.959,0.707,0.326,0.567,0.532,��쓌,8.0,��
2023/07/03,14:50,0.532,0.806,0.492,0.961,0.708,0.324,0.566,0.532,��,7.9,��
2023/07/03,15:00,0.530,0.806,0.491,0.963,0.705,0.326,0.565,0.533,��쓌,8.4,��
2023/07/03,15:10,0.532,0.807,0.489,0.956,0.709,0.325,0.565,0.533,��쓌,8.5,��
2023/07/03,15:20,0.534,0.807,0.490,0.960,0.707,0.325,0.565,0.533,��쓌,6.8,��
2023/07/03,15:30,0.534,0.807,0.490,0.960,0.709,0.325,0.567,0.531,��쓌,7.8,��
2023/07/03,15:40,0.534,0.809,0.491,0.960,0.708,0.324,0.566,0.533,��쓌,7.8,��
2023/07/03,15:50,0.534,0.808,0.490,0.960,0.707,0.325,0.565,0.531,��쓌,8.2,��
2023/07/03,16:00,0.532,0.807,0.491,0.961,0.709,0.324,0.566,0.532,��,6.3,��
2023/07/03,16:10,0.534,0.809,0.491,0.959,0.708,0.324,0.566,0.531,��,4.8,��
2023/07/03,16:20,0.533,0.808,0.489,0.960,0.709,0.324,0.566,0.531,��,3.0,��
2023/07/03,16:30,0.533,0.808,0.490,0.961,0.707,0.324,0.566,0.532,��쓌,3.3,��
2023/07/03,16:40,0.534,0.806,0.491,0.960,0.708,0.326,0.566,0.532,��쓌,2.8,��
2023/07/03,16:50,0.534,0.810,0.490,0.961,0.709,0.325,0.564,0.531,�쓌,1.2,��
2023/07/03,17:00,0.533,0.809,0.490,0.961,0.706,0.326,0.564,0.531,�쓌,2.0,��
2023/07/03,17:10,0.533,0.808,0.490,0.961,0.706,0.325,0.563,0.531,�쓌,4.8,��
2023/07/03,17:20,0.532,0.808,0.490,0.964,0.706,0.326,0.565,0.530,��쓌,4.2,��
2023/07/03,17:30,0.533,0.808,0.490,0.961,0.706,0.324,0.565,0.530,��쓌,4.9,��
2023/07/03,17:40,0.531,0.809,0.490,0.961,0.709,0.324,0.564,0.533,�쓌,3.3,��
2023/07/03,17:50,0.532,0.807,0.490,0.961,0.708,0.323,0.565,0.531,�쓌,3.0,��
2023/07/03,18:00,0.533,0.808,0.491,0.961,0.709,0.325,0.566,0.531,�쓌,2.9,��
2023/07/03,18:10,0.535,0.808,0.490,0.961,0.707,0.323,0.566,0.531,�쓌,2.5,��
2023/07/03,18:20,0.534,0.806,0.489,0.962,0.708,0.324,0.564,0.532,�쓌,3.8,��
2023/07/03,18:30,0.533,0.808,0.488,0.961,0.707,0.324,0.563,0.532,�쓌,3.2,��
2023/07/03,18:40,0.534,0.807,0.492,0.961,0.706,0.324,0.565,0.532,�쓌,2.6,��
2023/07/03,18:50,0.532,0.808,0.491,0.962,0.707,0.324,0.566,0.533,�쓌,2.6,��
2023/07/03,19:00,0.531,0.806,0.489,0.960,0.709,0.323,0.566,0.531,�쓌,2.0,��
2023/07/03,19:10,0.534,0.808,0.491,0.961,0.708,0.324,0.563,0.530,��쓌,2.6,��
2023/07/03,19:20,0.533,0.808,0.491,0.962,0.709,0.324,0.564,0.530,��쓌,2.3,��
2023/07/03,19:30,0.535,0.808,0.492,0.962,0.708,0.326,0.565,0.533,��쓌,2.6,��
2023/07/03,19:40,0.533,0.809,0.490,0.963,0.709,0.325,0.565,0.530,��,2.3,��
2023/07/03,19:50,0.535,0.811,0.492,0.963,0.709,0.325,0.563,0.532,��,3.2,��
2023/07/03,20:00,0.532,0.808,0.491,0.963,0.710,0.325,0.566,0.532,��,2.3,��
2023/07/03,20:10,0.533,0.809,0.493,0.962,0.709,0.324,0.565,0.531,��쐼,2.3,��
2023/07/03,20:20,0.533,0.809,0.491,0.962,0.709,0.325,0.565,0.531,��쐼,2.0,��
2023/07/03,20:30,0.532,0.811,0.492,0.964,0.709,0.324,0.565,0.533,���쐼,1.2,��
2023/07/03,20:40,0.533,0.810,0.491,0.964,0.709,0.324,0.564,0.533,���쐼,1.7,��
2023/07/03,20:50,0.533,0.809,0.493,0.963,0.710,0.326,0.565,0.531,���쐼,1.4,��
2023/07/03,21:00,0.533,0.808,0.491,0.964,0.707,0.324,0.566,0.532,��,1.7,��
2023/07/03,21:10,0.533,0.811,0.493,0.962,0.708,0.326,0.565,0.531,���k��,2.3,��
2023/07/03,21:20,0.533,0.810,0.493,0.966,0.708,0.325,0.565,0.534,�k��,2.9,��
2023/07/03,21:30,0.533,0.809,0.492,0.964,0.712,0.326,0.567,0.533,�k��,2.3,��
2023/07/03,21:40,0.532,0.811,0.494,0.963,0.710,0.325,0.565,0.533,�k��,2.0,��
2023/07/03,21:50,0.534,0.808,0.492,0.968,0.710,0.327,0.566,0.532,�k��,1.5,��
2023/07/03,22:00,0.533,0.811,0.492,0.965,0.711,0.326,0.566,0.532,�k��,0.9,��
2023/07/03,22:10,0.534,0.812,0.493,0.965,0.709,0.326,0.566,0.533,�k��,1.7,��
2023/07/03,22:20,0.535,0.810,0.492,0.965,0.712,0.326,0.566,0.534,�k��,1.9,��
2023/07/03,22:30,0.533,0.813,0.493,0.964,0.711,0.325,0.565,0.532,�k�k��,2.3,��
2023/07/03,22:40,0.534,0.811,0.493,0.965,0.710,0.327,0.567,0.533,�k�k��,2.9,��
2023/07/03,22:50,0.533,0.811,0.494,0.967,0.709,0.328,0.566,0.533,�k�k��,3.5,��
2023/07/03,23:00,0.535,0.811,0.493,0.967,0.711,0.327,0.567,0.532,�k�k��,3.7,��
2023/07/03,23:10,0.534,0.812,0.493,0.966,0.712,0.327,0.567,0.533,�k�k��,4.2,��
2023/07/03,23:20,0.537,0.811,0.493,0.968,0.711,0.328,0.567,0.534,�k�k��,3.7,��
2023/07/03,23:30,0.534,0.810,0.495,0.965,0.711,0.326,0.565,0.535,�k,4.1,��
2023/07/03,23:40,0.534,0.811,0.495,0.968,0.711,0.327,0.567,0.534,�k,3.9,��
2023/07/03,23:50,0.533,0.811,0.493,0.967,0.710,0.328,0.567,0.534,�k,3.6,��
